Location: Melizzano
(41.1500°N, 14.5000°E)
Time: 22:27:50
(UTC+00:00)

Cosmos 1238 Rocket - Pass Details

Date: 11 May 2021
Orbit: 373 x 1021 km, 82.9° (Epoch: 23 June)

Event Time Altitude Azimuth Distance (km) Brightness Sun altitude
Rises 22:15:34 0° 348° (NNW) 3,663 8.2 -29.9°
Reaches altitude 10° 22:18:17 10° 344° (NNW) 2,646 7.2 -30.0°
Enters shadow 22:23:42 51° 286° (WNW) 1,056 4.2 -30.2°
